CZ-6A DEB, 54449

Orbit data source: Space-Track

CZ-6A DEB, 54449 is space debris in SSO originally from a launch on Fri, 11 Nov 2022 UTC launched from the Taiyaun Space Center, China (TSC). Debris objects in space refer to the collection of defunct objects orbiting the Earth. Examples of debris include non-operational satellites, rocket bodies, and fragments generated from explosions, collisions, or faulty payload assembly.

Loading next visibility...
Identifier
54449, 2022-151FZ
Orbit
SSO
Country
Flag of CNCN / PRC
Related business
Manufacturer
SAST
Mission
Spacecraft
Bus & Motor
Unknown
Mass
Unknown
Launch date (UTC)
2022-11-11 (3 years ago)
Launch vehicle
Unknown
Launch site
Taiyaun Space Center, China (TSC)
Object type
Payload
Rocket body
Debris
Shape & HBR
Unknown shape, 0.1 m
Radar Cross Section
Small (<0.1 m²)

Expand to show TLE details & history
Last TLE update: 10 hours ago

TLE from 10 hours ago
0 CZ-6A DEB
1 54449U 22151FZ  26130.49611792  .00000666  00000-0  50644-3 0  9998
2 54449  98.9776 107.1132 0132472 177.5124 182.6724 13.93111489177189
Epoch: 2026-05-10T11:54Z
TLE epoch observation values (Epoch: 2026-05-10T11:54:24.588Z)
Latitude
-0.00002°
Longitude
60.21239°
Altitude
1,017.183 km
Speed
7.294 km/s
True Right ascension
07h 08m 27s
True Declination
0° 00' 00"
Sunlit
Object was in daylight at epoch
Visualization orbit readout
Latitude
Unknown
Longitude
Unknown
Altitude
Unknown
Speed
Unknown
Apparent Right ascension
Unknown
Apparent Declination
Unknown
Sunlit
N/A
Visualization observer readout
Local Sidereal Time
06:28:00
Azimuth
Unknown
Elevation
Unknown
Doppler factor
Unknown
Orbital elements
Apogee altitude
1,011.567 km
Perigee altitude
818.341 km
Semi-major axis
7,293.091 km
Eccentricity
0.01325
Inclination
98.9776°
RAAN
107.1132°
Arg. of periapsis
177.5124°
True anomaly
182.60277°
Mean anomaly
182.6724°
Eccentric anomaly
182.63747°
Mean motion
3.48478 °/min
Orbital period
103.31 mins
BSTAR
0.00050644
Loading maneuver chart data...
Computing Atmospheric mass density...
Loading historical data...
Loading historical data...
Loading historical data...
Loading historical data...
Loading historical data...
Loading historical data...
Loading historical data...

Documentation

Showing up to 5 results
|